Weather History for San Diego Montgomery, CA

Change the Weather History Date:

Thursday, October 10, 2013

  Actual Average Record
Temperature  
Mean Temperature 60 °F -  
Max Temperature 68 °F 74 °F 93 °F (1999)
Min Temperature 53 °F 57 °F 53 °F (2013)
Degree Days  
Heating Degree Days 6    
Growing Degree Days 10 (Base 50)    
Moisture  
Dew Point 49 °F    
Average Humidity 71    
Maximum Humidity 89    
Minimum Humidity 54    
Precipitation  
Precipitation 0.00 in - - ()
Sea Level Pressure  
Sea Level Pressure 29.94 in    
Wind  
Wind Speed 4 mph (South)    
Max Wind Speed 12 mph    
Max Gust Speed -    
Visibility 10 miles    
Events      
Averages and records for this station are not official NWS values.
T = Trace of Precipitation, MM = Missing Value Source: NWS Daily Summary

Daily Weather History Graph

Daily Weather History Graph

Search for Another Location

Airport:

Trip Planner

Search our weather history database for the weather conditions in past years. The results will help you decide how hot, cold, wet, or windy it might be!

Date:

Astronomy

Oct. 10, 2013 Rise Set
Actual Time 6:49 AM PDT 6:21 PM PDT
Civil Twilight 6:24 AM PDT 6:45 PM PDT
Nautical Twilight 5:55 AM PDT 7:14 PM PDT
Astronomical Twilight 5:27 AM PDT 7:42 PM PDT
Moon 12:33 PM PDT (10/10) 11:15 PM PDT (10/10)
Length of Visible Light 12h 21m
Length of Day
11h 31m
Waxing Crescent, 37% of the Moon is Illuminated
Oct 10
Waxing Crescent
Oct 11
First Quarter
Oct 18
Full
Oct 26
Last Quarter
Nov 3
New

Hourly Weather History & Observations

Time (PDT) Temp. Dew Point Humidity Pressure Visibility Wind Dir Wind Speed Gust Speed Precip Events Conditions
12:53 AM 57.0 °F 48.0 °F 72% 29.83 in 10.0 mi WSW 4.6 mph - N/A   Scattered Clouds
1:53 AM 57.0 °F 48.0 °F 72% 29.85 in 10.0 mi Calm Calm - 0.00 in   Partly Cloudy
2:53 AM 55.9 °F 46.9 °F 72% 29.86 in 10.0 mi Calm Calm - N/A   Mostly Cloudy
3:53 AM 54.0 °F 50.0 °F 86% 29.86 in 10.0 mi SE 4.6 mph - N/A   Mostly Cloudy
4:32 AM 53.6 °F 50.0 °F 88% 29.87 in 10.0 mi Calm Calm - N/A   Overcast
4:39 AM 53.6 °F 50.0 °F 88% 29.87 in 10.0 mi ESE 3.5 mph - N/A   Overcast
4:53 AM 54.0 °F 50.0 °F 86% 29.87 in 10.0 mi ESE 3.5 mph - N/A   Overcast
5:53 AM 53.1 °F 50.0 °F 89% 29.90 in 10.0 mi ESE 4.6 mph - N/A   Scattered Clouds
6:53 AM 53.1 °F 50.0 °F 89% 29.92 in 10.0 mi SE 4.6 mph - N/A   Scattered Clouds
7:53 AM 55.0 °F 50.0 °F 83% 29.95 in 10.0 mi ESE 4.6 mph - N/A   Partly Cloudy
8:53 AM 59.0 °F 51.1 °F 75% 29.97 in 10.0 mi ESE 5.8 mph - N/A   Partly Cloudy
9:53 AM 62.1 °F 51.1 °F 67% 29.99 in 10.0 mi SSE 4.6 mph - N/A   Partly Cloudy
10:53 AM 63.0 °F 48.0 °F 58% 30.00 in 10.0 mi SSE 6.9 mph - N/A   Mostly Cloudy
11:53 AM 63.0 °F 48.0 °F 58% 30.01 in 10.0 mi West 9.2 mph - N/A   Mostly Cloudy
12:53 PM 64.0 °F 48.0 °F 56% 29.99 in 10.0 mi Calm Calm - N/A   Mostly Cloudy
1:53 PM 66.9 °F 50.0 °F 54% 29.98 in 10.0 mi SW 11.5 mph - N/A   Mostly Cloudy
2:53 PM 64.9 °F 50.0 °F 58% 29.96 in 10.0 mi WSW 8.1 mph - N/A   Mostly Cloudy
3:53 PM 64.9 °F 51.1 °F 61% 29.96 in 10.0 mi West 8.1 mph - N/A   Mostly Cloudy
4:53 PM 64.9 °F 50.0 °F 58% 29.96 in 10.0 mi West 9.2 mph - N/A   Partly Cloudy
5:53 PM 63.0 °F 50.0 °F 63% 29.97 in 10.0 mi WNW 10.4 mph - N/A   Clear
6:53 PM 62.1 °F 48.9 °F 62% 29.98 in 10.0 mi NNW 6.9 mph - N/A   Clear
7:53 PM 61.0 °F 50.0 °F 67% 29.99 in 10.0 mi NNW 4.6 mph - N/A   Clear
8:53 PM 60.1 °F 50.0 °F 69% 30.00 in 10.0 mi North 3.5 mph - N/A   Clear
9:53 PM 57.9 °F 50.0 °F 75% 30.01 in 10.0 mi NE 3.5 mph - N/A   Clear
10:53 PM 57.0 °F 48.9 °F 74% 30.00 in 10.0 mi Calm Calm - N/A   Clear
11:53 PM 55.9 °F 48.9 °F 77% 30.00 in 10.0 mi NE 4.6 mph - N/A   Clear